ONEWEB-0207 (48242 NORAD) Tracking and Keplerian Element Data

This shows tracking and keplerian element data for the satellite.

Feedback or suggestion? Click here.




ElementValue
Catalog48242
NameONEWEB-0207
Epoch Orbit177
Epoch Day136.75001157
Epoch Year2021
RAAN305.75
Inclination87.4201
Eccentricity0.0008914
Argument of Perigee189.0699
Mean Anonmoly97.0288
Mean Motion15.34588959
Decay Rate-0.01372784
L11 48242U 21031AJ 21136.75001157 -.01372784 00000-0 -44993-1 0 9990
L22 48242 87.4201 305.7500 0008914 189.0699 97.0288 15.34588959 1774

Live tracking and technical data element details for ONEWEB-0207 (NORAD 48242). ONEWEB-0207 can be tracked NOW for your location showing map with azimuth and elevation plus other details from your city location.

Track the satellite on the map from your city or location and see movement details for azimuth, elevation, latitude, longitude, range, height, and movement on the map or in text.







IsCatalogInMostPopularTable: catalog: 48242, numindb: 6
Update: records affected: 1



GetName: 48242 ONEWEB-0207

Hit Count: updated at: Mon, 17 May 2021 16:34:19 GMT